Back to catalog

STARLINK-4142

AliveCommunicationsVLEO
NORAD 53255·PAYLOAD·🇺🇸 United States

Launched Jul 24, 2022 from Cape Canaveral Space Force Station

Loading…

Next Passes (next 24 hours)

TLE

FreshSource: CelesTrak SupGP

Epoch: Sep 14, 2026, 20:38 UTC

1 53255C 22086P   26257.86020833  .00039140  00000+0  14767-2 0  2570
2 53255  53.1568  60.9066 0001364  84.5827 144.1920 15.26484139    10

Track STARLINK-4142 in real time with AllMySat

Download on the App Store